| time (UTC) | temp F | wind direction | speed MPH | gust MPH | rain 1hr in | rain 24hr in | rain mn in | humidity % | barometer mb |
| 20260831115011 | 71 | 274 | 6.0 | 17.0 | 0.00 | 0.03 | 0.01 | 67 | 1014.4 |
| 20260831114511 | 70 | 300 | 6.0 | 17.0 | 0.00 | 0.03 | 0.01 | 68 | 1014.4 |
| 20260831113511 | 70 | 325 | 5.0 | 14.0 | 0.00 | 0.03 | 0.01 | 69 | 1014.3 |
| 20260831113011 | 69 | 237 | 7.0 | 14.0 | 0.00 | 0.03 | 0.01 | 69 | 1014.2 |
| 20260831111510 | 70 | 308 | 3.0 | 14.0 | 0.00 | 0.03 | 0.01 | 70 | 1013.9 |
| 20260831105511 | 70 | 245 | 7.0 | 13.0 | 0.00 | 0.03 | 0.01 | 70 | 1013.7 |
| 20260831105011 | 70 | 241 | 5.0 | 12.0 | 0.00 | 0.03 | 0.01 | 70 | 1013.6 |
| 20260831104510 | 71 | 314 | 6.0 | 12.0 | 0.00 | 0.03 | 0.01 | 69 | 1013.6 |
| 20260831103510 | 70 | 307 | 5.0 | 17.0 | 0.00 | 0.03 | 0.01 | 70 | 1013.4 |
| 20260831102511 | 70 | 288 | 4.0 | 14.0 | 0.00 | 0.03 | 0.01 | 70 | 1013.3 |
| 20260831100511 | 69 | 303 | 3.0 | 10.0 | 0.00 | 0.03 | 0.01 | 72 | 1013.0 |
| 20260831100011 | 69 | 304 | 6.0 | 10.0 | 0.00 | 0.03 | 0.01 | 71 | 1013.0 |
| 20260831095510 | 70 | 320 | 6.0 | 10.0 | 0.00 | 0.03 | 0.01 | 70 | 1012.8 |
| 20260831095011 | 70 | 305 | 3.0 | 13.0 | 0.00 | 0.03 | 0.01 | 71 | 1012.7 |
| 20260831090011 | 68 | 309 | 3.0 | 9.0 | 0.00 | 0.03 | 0.01 | 76 | 1012.1 |
| 20260831085011 | 68 | 284 | 4.0 | 12.0 | 0.01 | 0.03 | 0.01 | 77 | 1012.0 |
| 20260831081511 | 66 | 232 | 6.0 | 14.0 | 0.01 | 0.04 | 0.01 | 80 | 1011.2 |
| 20260831081010 | 65 | 235 | 6.0 | 14.0 | 0.01 | 0.04 | 0.01 | 81 | 1011.2 |
| 20260831080511 | 65 | 296 | 6.0 | 20.0 | 0.01 | 0.04 | 0.01 | 82 | 1011.1 |
| 20260831080012 | 65 | 227 | 7.0 | 20.0 | 0.01 | 0.04 | 0.01 | 82 | 1011.0 |
| 20260831075511 | 64 | 245 | 3.0 | 18.0 | 0.01 | 0.04 | 0.01 | 83 | 1010.9 |
| 20260831074511 | 63 | 247 | 6.0 | 15.0 | 0.00 | 0.03 | 0.00 | 85 | 1010.7 |
| 20260831074010 | 63 | 240 | 7.0 | 13.0 | 0.00 | 0.04 | 0.00 | 85 | 1010.5 |
| 20260831073011 | 62 | 234 | 7.0 | 12.0 | 0.00 | 0.05 | 0.00 | 86 | 1010.4 |
| 20260831072011 | 62 | 243 | 5.0 | 10.0 | 0.00 | 0.05 | 0.00 | 88 | 1010.4 |
| 20260831070511 | 61 | 234 | 3.0 | 9.0 | 0.00 | 0.05 | 0.00 | 89 | 1010.2 |
| 20260831065512 | 60 | 202 | 3.0 | 12.0 | 0.00 | 0.05 | 0.00 | 89 | 1009.9 |
| 20260831065011 | 60 | 221 | 3.0 | 12.0 | 0.00 | 0.05 | 0.00 | 89 | 1009.8 |
| 20260831064511 | 60 | 206 | 5.0 | 12.0 | 0.00 | 0.05 | 0.00 | 89 | 1009.7 |
| 20260831061011 | 59 | 218 | 5.0 | 12.0 | 0.00 | 0.05 | 0.00 | 89 | 1009.0 |
| 20260831060011 | 59 | 219 | 5.0 | 12.0 | 0.00 | 0.05 | 0.00 | 89 | 1008.8 |
| 20260831055011 | 59 | 223 | 3.0 | 9.0 | 0.00 | 0.05 | 0.00 | 89 | 1008.7 |
| 20260831054511 | 59 | 233 | 3.0 | 7.0 | 0.00 | 0.05 | 0.00 | 89 | 1008.6 |
| 20260831054011 | 59 | 210 | 3.0 | 9.0 | 0.00 | 0.05 | 0.00 | 89 | 1008.5 |
| 20260831052511 | 59 | 176 | 3.0 | 10.0 | 0.00 | 0.05 | 0.00 | 89 | 1008.3 |
| 20260831051510 | 59 | 218 | 3.0 | 9.0 | 0.00 | 0.05 | 0.00 | 89 | 1008.1 |
| 20260831051011 | 59 | 207 | 3.0 | 9.0 | 0.00 | 0.05 | 0.00 | 89 | 1008.0 |
| 20260831050011 | 59 | 205 | 4.0 | 9.0 | 0.00 | 0.05 | 0.00 | 88 | 1007.9 |
| 20260831045510 | 59 | 206 | 3.0 | 9.0 | 0.00 | 0.05 | 0.00 | 89 | 1007.8 |
| 20260831045011 | 59 | 197 | 3.0 | 9.0 | 0.00 | 0.05 | 0.00 | 89 | 1007.7 |
| 20260831044511 | 59 | 207 | 5.0 | 12.0 | 0.00 | 0.05 | 0.00 | 89 | 1007.7 |
| 20260831044011 | 59 | 213 | 5.0 | 12.0 | 0.00 | 0.05 | 0.00 | 89 | 1007.7 |
| 20260831043511 | 58 | 197 | 3.0 | 7.0 | 0.00 | 0.05 | 0.00 | 89 | 1007.7 |
| 20260831043010 | 58 | 170 | 3.0 | 8.0 | 0.00 | 0.05 | 0.00 | 89 | 1007.7 |
| 20260831042011 | 58 | 217 | 1.0 | 8.0 | 0.00 | 0.05 | 0.00 | 89 | 1007.5 |
| 20260831041011 | 59 | 205 | 4.0 | 10.0 | 0.00 | 0.05 | 0.00 | 89 | 1007.4 |
| 20260831040511 | 59 | 203 | 5.0 | 10.0 | 0.00 | 0.05 | 0.00 | 88 | 1007.4 |
| 20260831040011 | 59 | 200 | 5.0 | 8.0 | 0.00 | 0.05 | 0.00 | 88 | 1007.3 |
| 20260831035511 | 59 | 221 | 5.0 | 8.0 | 0.00 | 0.05 | 0.00 | 88 | 1007.4 |
| 20260831034511 | 59 | 212 | 3.0 | 10.0 | 0.00 | 0.05 | 0.00 | 88 | 1007.2 |
| 20260831031511 | 59 | 219 | 5.0 | 12.0 | 0.00 | 0.05 | 0.00 | 88 | 1007.1 |
| 20260831030511 | 59 | 209 | 5.0 | 12.0 | 0.00 | 0.05 | 0.00 | 88 | 1007.1 |
| 20260831030011 | 59 | 211 | 4.0 | 9.0 | 0.00 | 0.05 | 0.00 | 88 | 1007.0 |
| 20260831025511 | 59 | 218 | 3.0 | 9.0 | 0.00 | 0.05 | 0.00 | 88 | 1007.0 |
| 20260831022510 | 59 | 191 | 4.0 | 12.0 | 0.00 | 0.05 | 0.00 | 88 | 1006.6 |
| 20260831020011 | 59 | 208 | 5.0 | 9.0 | 0.00 | 0.05 | 0.00 | 88 | 1006.4 |
| 20260831015511 | 59 | 202 | 5.0 | 9.0 | 0.00 | 0.05 | 0.00 | 88 | 1006.5 |
| 20260831015011 | 59 | 222 | 5.0 | 9.0 | 0.00 | 0.05 | 0.00 | 88 | 1006.4 |
| 20260831014511 | 59 | 207 | 3.0 | 9.0 | 0.00 | 0.05 | 0.00 | 88 | 1006.4 |
| 20260831013010 | 59 | 207 | 3.0 | 8.0 | 0.00 | 0.05 | 0.00 | 88 | 1006.3 |
| 20260831011011 | 59 | 237 | 4.0 | 9.0 | 0.00 | 0.05 | 0.00 | 88 | 1006.3 |
| 20260831010511 | 59 | 215 | 5.0 | 9.0 | 0.00 | 0.05 | 0.00 | 88 | 1006.2 |
| 20260831005011 | 59 | 212 | 3.0 | 8.0 | 0.00 | 0.05 | 0.00 | 88 | 1006.1 |
| 20260831003011 | 60 | 216 | 6.0 | 12.0 | 0.00 | 0.05 | 0.00 | 87 | 1005.9 |
| 20260831001011 | 60 | 208 | 6.0 | 12.0 | 0.00 | 0.05 | 0.00 | 87 | 1005.4 |
| 20260830235512 | 60 | 205 | 6.0 | 12.0 | 0.00 | 0.05 | 0.00 | 87 | 1005.4 |
| 20260830235010 | 60 | 197 | 5.0 | 12.0 | 0.00 | 0.05 | 0.00 | 88 | 1005.4 |
| 20260830234511 | 60 | 216 | 6.0 | 12.0 | 0.00 | 0.05 | 0.00 | 88 | 1005.4 |
| 20260830233011 | 61 | 228 | 2.0 | 6.0 | 0.00 | 0.05 | 0.00 | 89 | 1005.4 |
| 20260830232511 | 61 | 226 | 2.0 | 7.0 | 0.00 | 0.05 | 0.00 | 89 | 1005.4 |
| 20260830225511 | 61 | 204 | 4.0 | 12.0 | 0.00 | 0.05 | 0.05 | 87 | 1005.2 |
| 20260830224511 | 62 | 198 | 4.0 | 12.0 | 0.00 | 0.05 | 0.05 | 87 | 1005.2 |
| 20260830224011 | 62 | 202 | 5.0 | 12.0 | 0.00 | 0.05 | 0.05 | 87 | 1005.1 |
| 20260830223511 | 62 | 182 | 4.0 | 12.0 | 0.00 | 0.05 | 0.05 | 87 | 1005.1 |
| 20260830222511 | 62 | 206 | 5.0 | 12.0 | 0.00 | 0.05 | 0.05 | 86 | 1005.0 |
| 20260830221511 | 63 | 196 | 7.0 | 16.0 | 0.00 | 0.05 | 0.05 | 86 | 1004.9 |
| 20260830221011 | 63 | 191 | 7.0 | 16.0 | 0.00 | 0.05 | 0.05 | 86 | 1004.8 |
| 20260830220511 | 63 | 196 | 8.0 | 17.0 | 0.00 | 0.05 | 0.05 | 86 | 1004.8 |
| 20260830220011 | 63 | 207 | 7.0 | 17.0 | 0.00 | 0.05 | 0.05 | 87 | 1004.8 |
| 20260830215511 | 63 | 195 | 6.0 | 12.0 | 0.00 | 0.05 | 0.05 | 88 | 1004.7 |
| 20260830215011 | 63 | 197 | 6.0 | 18.0 | 0.00 | 0.05 | 0.05 | 88 | 1004.9 |
| 20260830214510 | 63 | 201 | 6.0 | 20.0 | 0.00 | 0.05 | 0.05 | 88 | 1004.8 |
| 20260830213011 | 63 | 193 | 5.0 | 13.0 | 0.00 | 0.05 | 0.05 | 87 | 1005.0 |
| 20260830212511 | 63 | 211 | 7.0 | 15.0 | 0.00 | 0.05 | 0.05 | 87 | 1005.1 |
| 20260830211511 | 63 | 181 | 8.0 | 14.0 | 0.00 | 0.05 | 0.05 | 87 | 1004.9 |
| 20260830205511 | 63 | 193 | 5.0 | 15.0 | 0.00 | 0.05 | 0.05 | 88 | 1005.1 |
| 20260830205011 | 63 | 188 | 8.0 | 15.0 | 0.00 | 0.05 | 0.05 | 88 | 1005.1 |
| 20260830204011 | 63 | 180 | 7.0 | 14.0 | 0.00 | 0.05 | 0.05 | 88 | 1005.3 |
| 20260830203511 | 63 | 176 | 6.0 | 15.0 | 0.00 | 0.05 | 0.05 | 87 | 1005.4 |
| 20260830201511 | 63 | 195 | 9.0 | 16.0 | 0.00 | 0.05 | 0.05 | 87 | 1005.5 |
| 20260830201011 | 63 | 181 | 6.0 | 16.0 | 0.00 | 0.05 | 0.05 | 87 | 1005.5 |
| 20260830195510 | 63 | 182 | 9.0 | 20.0 | 0.00 | 0.05 | 0.05 | 87 | 1005.5 |
| 20260830195011 | 63 | 203 | 11.0 | 20.0 | 0.00 | 0.05 | 0.05 | 87 | 1005.6 |
| 20260830194511 | 63 | 199 | 8.0 | 20.0 | 0.00 | 0.05 | 0.05 | 87 | 1005.5 |
| 20260830193511 | 63 | 195 | 7.0 | 16.0 | 0.00 | 0.05 | 0.05 | 88 | 1005.4 |
| 20260830193011 | 63 | 211 | 6.0 | 14.0 | 0.00 | 0.05 | 0.05 | 88 | 1005.5 |
| 20260830192011 | 63 | 203 | 5.0 | 14.0 | 0.00 | 0.05 | 0.05 | 88 | 1005.5 |
| 20260830191011 | 62 | 189 | 5.0 | 13.0 | 0.00 | 0.05 | 0.05 | 87 | 1005.6 |
| 20260830190011 | 63 | 182 | 5.0 | 13.0 | 0.00 | 0.05 | 0.05 | 87 | 1005.6 |
| 20260830185511 | 63 | 191 | 3.0 | 14.0 | 0.01 | 0.05 | 0.05 | 87 | 1005.6 |
| 20260830185010 | 63 | 203 | 6.0 | 14.0 | 0.01 | 0.05 | 0.05 | 87 | 1005.5 |
| 20260830184511 | 63 | 188 | 6.0 | 14.0 | 0.01 | 0.05 | 0.05 | 86 | 1005.5 |
| 20260830184011 | 63 | 179 | 6.0 | 12.0 | 0.01 | 0.05 | 0.05 | 86 | 1005.5 |
| 20260830182511 | 63 | 207 | 6.0 | 17.0 | 0.02 | 0.05 | 0.05 | 85 | 1005.6 |
| 20260830182011 | 63 | 198 | 8.0 | 17.0 | 0.02 | 0.05 | 0.05 | 85 | 1005.6 |
| 20260830181511 | 64 | 185 | 7.0 | 17.0 | 0.02 | 0.05 | 0.05 | 85 | 1005.7 |
| 20260830181011 | 64 | 183 | 6.0 | 15.0 | 0.02 | 0.05 | 0.05 | 86 | 1005.7 |
| 20260830180511 | 64 | 205 | 7.0 | 16.0 | 0.02 | 0.05 | 0.05 | 87 | 1005.7 |
| 20260830180011 | 64 | 202 | 8.0 | 16.0 | 0.02 | 0.05 | 0.05 | 88 | 1005.7 |
| 20260830175511 | 65 | 191 | 7.0 | 15.0 | 0.02 | 0.04 | 0.04 | 87 | 1005.8 |
| 20260830174510 | 65 | 207 | 8.0 | 17.0 | 0.02 | 0.04 | 0.04 | 87 | 1005.8 |
| 20260830174011 | 65 | 198 | 6.0 | 17.0 | 0.02 | 0.04 | 0.04 | 86 | 1005.9 |
| 20260830171010 | 67 | 191 | 10.0 | 20.0 | 0.00 | 0.02 | 0.02 | 79 | 1006.3 |
| 20260830170511 | 67 | 199 | 11.0 | 20.0 | 0.00 | 0.02 | 0.02 | 79 | 1006.2 |
| 20260830165511 | 67 | 204 | 9.0 | 18.0 | 0.00 | 0.02 | 0.02 | 80 | 1006.2 |
| 20260830165010 | 67 | 171 | 10.0 | 20.0 | 0.00 | 0.02 | 0.02 | 80 | 1006.3 |
| 20260830164011 | 67 | 179 | 12.0 | 20.0 | 0.00 | 0.02 | 0.02 | 81 | 1006.5 |
| 20260830163511 | 67 | 201 | 6.0 | 18.0 | 0.00 | 0.02 | 0.02 | 81 | 1006.5 |
| 20260830162011 | 67 | 183 | 8.0 | 17.0 | 0.00 | 0.09 | 0.02 | 81 | 1006.7 |
| 20260830161511 | 67 | 190 | 10.0 | 17.0 | 0.00 | 0.09 | 0.02 | 80 | 1006.6 |
| 20260830161011 | 68 | 188 | 8.0 | 16.0 | 0.00 | 0.09 | 0.02 | 80 | 1006.6 |
| 20260830160510 | 68 | 201 | 9.0 | 17.0 | 0.00 | 0.09 | 0.02 | 80 | 1006.6 |
| 20260830155511 | 68 | 178 | 8.0 | 20.0 | 0.00 | 0.09 | 0.02 | 80 | 1006.6 |
| 20260830154011 | 68 | 166 | 7.0 | 16.0 | 0.00 | 0.09 | 0.02 | 80 | 1006.7 |
| 20260830153012 | 68 | 193 | 9.0 | 22.0 | 0.00 | 0.09 | 0.02 | 80 | 1006.9 |
| 20260830152511 | 68 | 184 | 11.0 | 18.0 | 0.00 | 0.09 | 0.02 | 79 | 1007.0 |
| 20260830152011 | 68 | 166 | 7.0 | 20.0 | 0.00 | 0.09 | 0.02 | 79 | 1006.9 |
| 20260830151011 | 68 | 192 | 7.0 | 17.0 | 0.00 | 0.09 | 0.02 | 78 | 1007.1 |
| 20260830145011 | 69 | 200 | 9.0 | 20.0 | 0.00 | 0.09 | 0.02 | 76 | 1007.6 |
| 20260830144511 | 69 | 187 | 10.0 | 20.0 | 0.00 | 0.09 | 0.02 | 76 | 1007.5 |
| 20260830144011 | 69 | 192 | 10.0 | 20.0 | 0.00 | 0.09 | 0.02 | 75 | 1007.5 |
| 20260830143011 | 70 | 198 | 8.0 | 17.0 | 0.00 | 0.10 | 0.02 | 74 | 1007.7 |
| 20260830142510 | 70 | 201 | 10.0 | 17.0 | 0.00 | 0.10 | 0.02 | 74 | 1007.6 |
| 20260830141011 | 70 | 186 | 10.0 | 24.0 | 0.00 | 0.10 | 0.02 | 72 | 1008.0 |
| 20260830140511 | 71 | 193 | 10.0 | 20.0 | 0.00 | 0.10 | 0.02 | 74 | 1008.0 |
| 20260830135511 | 70 | 187 | 9.0 | 20.0 | 0.00 | 0.10 | 0.02 | 74 | 1007.9 |
| 20260830134011 | 70 | 206 | 9.0 | 20.0 | 0.00 | 0.10 | 0.02 | 72 | 1007.9 |
| 20260830133511 | 70 | 203 | 12.0 | 20.0 | 0.00 | 0.10 | 0.02 | 71 | 1007.9 |
| 20260830133011 | 71 | 185 | 7.0 | 20.0 | 0.00 | 0.10 | 0.02 | 71 | 1007.7 |
| 20260830132511 | 70 | 194 | 12.0 | 20.0 | 0.00 | 0.10 | 0.02 | 71 | 1007.8 |
| 20260830132011 | 70 | 177 | 7.0 | 16.0 | 0.00 | 0.10 | 0.02 | 74 | 1008.0 |
| 20260830131511 | 70 | 189 | 7.0 | 16.0 | 0.00 | 0.10 | 0.02 | 74 | 1008.1 |
| 20260830130012 | 71 | 202 | 10.0 | 21.0 | 0.00 | 0.10 | 0.02 | 71 | 1008.3 |
| 20260830125510 | 71 | 188 | 12.0 | 21.0 | 0.00 | 0.10 | 0.02 | 70 | 1008.3 |
| 20260830125010 | 71 | 188 | 9.0 | 21.0 | 0.00 | 0.10 | 0.02 | 71 | 1008.2 |
| 20260830124511 | 71 | 176 | 5.0 | 17.0 | 0.00 | 0.10 | 0.02 | 73 | 1008.3 |
| 20260830124010 | 71 | 206 | 9.0 | 17.0 | 0.00 | 0.10 | 0.02 | 72 | 1008.3 |
| 20260830123011 | 70 | 194 | 8.0 | 22.0 | 0.00 | 0.10 | 0.02 | 75 | 1008.3 |
| 20260830122011 | 69 | 208 | 9.0 | 16.0 | 0.00 | 0.10 | 0.02 | 75 | 1008.5 |
| 20260830121510 | 70 | 187 | 8.0 | 18.0 | 0.00 | 0.10 | 0.02 | 75 | 1008.5 |
| 20260830121011 | 71 | 204 | 9.0 | 18.0 | 0.00 | 0.10 | 0.02 | 75 | 1008.5 |
| 20260830120011 | 69 | 205 | 6.0 | 14.0 | 0.00 | 0.10 | 0.02 | 80 | 1008.5 |